Airfield :
LOGIN :

Register | Disclaimer

   EN    FR    IT 

 










Legend :    VFR   Marginal VFR   IFR   Intensive IFR   Very Intensive IFR
Visi :
Ceiling :
>= 8 km
>= 3000ft
5 to 8 km
1000 to 3000 ft
1500m to 5 km
500 to 1000 ft
800 to 1500m
200 to 500 ft
< 800m
< 200 ft
Symbols :   Thunderstorms  Fog  Heavy snow  Heavy precipitations  Wind > 20 kt
SIGMETs :     Misc.  Thunderstorms  Icing  Turbulence  Mountain Waves  Volcanic Ashes







- Airport Elevation : 885 ft
- IATA code : BAS
- Download approach charts


LFSB - Bale-Mulhouse

CURRENT METAR :
  • 201730Z 36009KT CAVOK 29/13 Q1017 NOSIG

EXPIRED METARs :
  • 201700Z 36008KT CAVOK 30/13 Q1017 NOSIG
  • 201630Z 36008KT 320V040 CAVOK 30/13 Q1017 NOSIG
  • 201600Z 02007KT 330V050 CAVOK 31/13 Q1018 NOSIG
  • 201530Z 01006KT 300V060 CAVOK 31/11 Q1018 NOSIG
  • 201500Z 05006KT 330V140 CAVOK 31/12 Q1018 NOSIG

TAF AMD TAF LFSB
Valid from the 20 at 18:00 until the 21 at 18:00 UTC


201745Z 2018/2118 36007KT CAVOK
TEMPO 2100/2109 VRB04KT
TEMPO 2111/2117 FEW060TCU
Met : +33 3 89 90 31 11
No reported NOTAMs for that airfield.



MET'MAP, your aeronautical weather chart ! - Copyright ORBIFLY December 2007 - Disclaimer

ORBIFLY MET'MAP TEAM :

Programming & Development : Alexandra Zaïnal
Concept & Development : Baudouin d'Aumeries
Co-Development & Prog : Marc-Olivier Méhu
Technical & hardware support : Manuel Goepfert

Contact : metmap@orbifly.com




SOURCES & CREDITS :

   NOAA